date,time,DOY,Ta_1_1_1,RH_1_1_1,LWin_1_1_1,LWout_1_1_1,SWin_1_1_1,SWout_1_1_1,PPFD_1_1_1,SWC_1_1_1,Ts_1_1_1
[yyyy-mm-dd],[HH:MM],[ddd.ddd],[K],[%],[W+1m-2],[W+1m-2],[W+1m-2],[W+1m-2],[µmol+1m-2s-1],[m+3m-3],[K]
2013-01-21,00:30,21.020,251.62500000000003,71.820333333333338,-4.3096666666666676,-9999.0,7.30000000000000093E-002,-1.7199999999999998,5.66666666666666707E-003,-9999.0,279.90999999999991
2013-01-21,01:00,21.041,251.52200000000005,72.224000000000018,-4.4133333333333322,-9999.0,8.33333333333333426E-002,-1.7410000000000001,4.66666666666666619E-003,-9999.0,279.90999999999991
2013-01-21,01:30,21.062,251.46733333333336,72.588666666666668,-3.9936666666666674,-9999.0,2.33333333333333379E-002,-1.3800000000000001,1.30000000000000046E-002,-9999.0,279.90999999999991
2013-01-21,02:00,21.083,251.41033333333337,72.512333333333331,-4.1253333333333329,-9999.0,4.06666666666666704E-002,-1.7663333333333331,7.00000000000000101E-003,-9999.0,279.90999999999991
2013-01-21,02:30,21.104,251.04700000000008,71.373000000000005,-5.4046666666666674,-9999.0,0.23199999999999996,-2.6179999999999999,8.66666666666666627E-003,-9999.0,279.90999999999991
2013-01-21,03:00,21.124,250.78366666666670,69.934666666666686,-4.5023333333333335,-9999.0,9.06666666666666732E-002,-1.9000000000000006,2.66666666666666571E-003,-9999.0,279.90999999999991
2013-01-21,03:30,21.145,250.43833333333336,68.744333333333330,-4.6236666666666668,-9999.0,0.11733333333333333,-2.2486666666666664,5.33333333333333316E-003,-9999.0,279.90999999999991
2013-01-21,04:00,21.166,250.09999999999999,68.461666666666659,-3.5786666666666673,-9999.0,1.33333333333333342E-002,-1.5269999999999999,4.66666666666666619E-003,-9999.0,279.90999999999991
2013-01-21,04:30,21.187,249.52466666666666,70.610333333333315,-3.5973333333333328,-9999.0,-3.79999999999999991E-002,-1.7770000000000001,6.33333333333333404E-003,-9999.0,279.90999999999991
2013-01-21,05:00,21.208,248.87366666666671,69.872000000000000,-4.7563333333333331,-9999.0,0.19700000000000004,-2.6296666666666662,1.66666666666666634E-003,-9999.0,279.90999999999991
2013-01-21,05:30,21.229,248.37100000000001,69.319000000000017,-4.7510000000000003,-9999.0,0.23700000000000002,-2.5003333333333333,1.00000000000000019E-002,-9999.0,279.90999999999991
2013-01-21,06:00,21.249,248.16666666666666,68.247333333333330,-3.7516666666666669,-9999.0,0.17000000000000001,-1.7236666666666667,3.66666666666666530E-003,-9999.0,279.90999999999991
2013-01-21,06:30,21.270,248.06500000000003,66.286333333333360,-3.2456666666666663,-9999.0,3.06666666666666789E-002,-1.4506666666666665,3.99999999999999922E-003,-9999.0,279.90999999999991
2013-01-21,07:00,21.291,247.77933333333337,64.984000000000009,-3.8303333333333329,-9999.0,0.10066666666666665,-1.9326666666666663,2.40000000000000005E-002,-9999.0,279.90999999999991
2013-01-21,07:30,21.312,247.34866666666665,64.731999999999999,-4.6230000000000002,-9999.0,0.39266666666666661,-1.5940000000000003,1.9493333333333329,-9999.0,279.90999999999991
2013-01-21,08:00,21.333,246.87966666666671,63.670333333333339,-4.4376666666666678,-9999.0,4.5906666666666673,17.526666666666664,30.394999999999996,-9999.0,279.90999999999991
2013-01-21,08:30,21.354,246.61800000000005,63.488666666666667,-4.3400000000000007,-9999.0,12.213333333333333,57.349666666666664,99.351666666666688,-9999.0,279.90999999999991
2013-01-21,09:00,21.374,246.65333333333334,62.604999999999997,-3.9213333333333336,-9999.0,24.086333333333336,119.30366666666669,199.14533333333335,-9999.0,279.90999999999991
2013-01-21,09:30,21.395,246.78933333333330,61.966999999999999,-3.2240000000000011,-9999.0,34.262666666666668,173.82366666666667,297.71699999999998,-9999.0,279.90999999999991
2013-01-21,10:00,21.416,247.06800000000004,59.038000000000004,-2.4066666666666667,-9999.0,42.555000000000000,216.95499999999998,380.14833333333326,-9999.0,279.90999999999991
2013-01-21,10:30,21.437,247.21900000000005,57.990999999999993,-1.4466666666666665,-9999.0,45.448000000000000,220.06400000000002,397.61799999999999,-9999.0,279.90999999999991
2013-01-21,11:00,21.458,247.31066666666672,57.706333333333333,-0.87600000000000000,-9999.0,47.523333333333326,226.21466666666669,416.49700000000007,-9999.0,279.90999999999991
2013-01-21,11:30,21.479,247.59666666666672,55.137000000000008,-1.0770000000000002,-9999.0,53.995666666666672,264.89633333333336,486.55599999999998,-9999.0,279.90999999999991
2013-01-21,12:00,21.499,247.62933333333331,54.094666666666654,-0.56166666666666665,-9999.0,54.096666666666671,258.45233333333329,477.41100000000000,-9999.0,279.90999999999991
2013-01-21,12:30,21.520,247.75033333333334,54.568666666666665,-0.19866666666666669,-9999.0,59.409666666666674,283.82766666666674,521.35100000000000,-9999.0,279.90999999999991
2013-01-21,13:00,21.541,247.67833333333337,54.106999999999992,-0.49366666666666659,-9999.0,50.607999999999983,241.23633333333328,447.98099999999999,-9999.0,279.90999999999991
2013-01-21,13:30,21.562,247.66466666666668,50.380666666666656,-0.32000000000000006,-9999.0,51.283999999999992,243.94666666666669,449.97099999999989,-9999.0,279.90999999999991
2013-01-21,14:00,21.583,247.66133333333335,48.875000000000007,-0.15300000000000000,-9999.0,52.435666666666670,250.57366666666667,454.78633333333323,-9999.0,279.90999999999991
2013-01-21,14:30,21.604,247.68433333333334,50.202333333333328,-0.70900000000000007,-9999.0,42.546333333333322,203.35466666666665,368.67800000000000,-9999.0,279.90999999999991
2013-01-21,15:00,21.624,247.46033333333332,50.716999999999999,-1.2909999999999999,-9999.0,31.909666666666670,154.26200000000000,280.98266666666660,-9999.0,279.90999999999991
2013-01-21,15:30,21.645,247.26366666666669,51.829666666666661,-1.5663333333333331,-9999.0,23.077999999999999,109.32333333333334,198.39633333333333,-9999.0,279.90999999999991
2013-01-21,16:00,21.666,247.02233333333339,54.552333333333337,-1.6963333333333328,-9999.0,13.943999999999997,64.884333333333345,116.23166666666665,-9999.0,279.90999999999991
2013-01-21,16:30,21.687,246.98233333333332,56.734999999999992,-1.9473333333333331,-9999.0,6.0003333333333329,27.245999999999999,48.938000000000002,-9999.0,279.90999999999991
2013-01-21,17:00,21.708,247.00400000000002,57.332000000000001,-2.2109999999999994,-9999.0,1.0429999999999999,4.2136666666666667,10.099000000000000,-9999.0,279.90999999999991
2013-01-21,17:30,21.729,246.97966666666662,58.251999999999995,-2.3643333333333341,-9999.0,9.99999999999995467E-004,-0.70066666666666677,0.32899999999999990,-9999.0,279.90999999999991
2013-01-21,18:00,21.749,246.99600000000004,59.571666666666651,-2.5596666666666668,-9999.0,-1.06666666666666646E-002,-0.96866666666666645,-1.33333333333333329E-003,-9999.0,279.90999999999991
2013-01-21,18:30,21.770,247.08866666666665,57.266333333333343,-2.5726666666666662,-9999.0,-2.83333333333333423E-002,-0.86666666666666670,-3.33333333333333702E-004,-9999.0,279.90999999999991
2013-01-21,19:00,21.791,247.14133333333336,59.012666666666661,-2.3383333333333334,-9999.0,-4.46666666666666809E-002,-0.75833333333333308,4.66666666666666705E-003,-9999.0,279.90999999999991
2013-01-21,19:30,21.812,247.23166666666671,61.311333333333330,-2.3063333333333333,-9999.0,-4.26666666666666791E-002,-0.73233333333333339,8.66666666666666627E-003,-9999.0,279.90999999999991
2013-01-21,20:00,21.833,247.27033333333344,63.804999999999993,-2.2120000000000006,-9999.0,-8.60000000000000209E-002,-0.66566666666666674,2.00000000000000004E-003,-9999.0,279.90999999999991
2013-01-21,20:30,21.854,247.35866666666666,65.879333333333321,-2.1723333333333334,-9999.0,-7.43333333333333623E-002,-0.60433333333333317,-1.00000000000000045E-003,-9999.0,279.90999999999991
2013-01-21,21:00,21.874,247.51166666666671,66.992333333333320,-2.3383333333333329,-9999.0,-8.86666666666666853E-002,-0.65399999999999991,2.33333333333333309E-003,-9999.0,279.90999999999991
2013-01-21,21:30,21.895,247.57666666666668,67.286666666666662,-2.3963333333333332,-9999.0,-0.13400000000000001,-0.69666666666666677,1.00000000000000002E-003,-9999.0,279.90999999999991
2013-01-21,22:00,21.916,247.54333333333341,67.290666666666667,-2.2813333333333334,-9999.0,-0.13633333333333331,-0.64266666666666672,3.33333333333333225E-003,-9999.0,279.90999999999991
2013-01-21,22:30,21.937,247.47599999999991,67.701666666666654,-2.3180000000000001,-9999.0,-0.13966666666666669,-0.69766666666666666,-6.66666666666666319E-004,-9999.0,279.90999999999991
2013-01-21,23:00,21.958,247.50566666666677,67.563333333333333,-2.6953333333333336,-9999.0,-7.03333333333333588E-002,-0.89499999999999991,2.33333333333333309E-003,-9999.0,279.90999999999991
2013-01-21,23:30,21.979,247.49599999999995,67.638000000000019,-2.8650000000000002,-9999.0,-6.30000000000000282E-002,-1.0206666666666666,-5.00000000000000097E-003,-9999.0,279.90999999999991
2013-01-22,00:00,22.000,247.32600000000008,67.503000000000000,-3.3486666666666665,-9999.0,-1.26666666666666629E-002,-1.3983333333333332,6.66666666666666796E-003,-9999.0,279.90999999999991
